�N����,����,�~����,�C��,���x,�C��,����,���ϕ���,�ő�u�ԕ���,�ő厞����,���˗�,�I�_���x,�n�����x,�ő啗���N��,DTYPE
"23/01/14","00:10",0.0,10.5,97.8,1010.0,227.0,0.6,1.2,236.4,0.00,10.2,8.3,"00:00:08",1
"23/01/14","00:20",0.0,10.5,97.8,1009.7,300.0,0.7,1.2,335.6,0.00,10.2,8.2,"00:18:16",1
"23/01/14","00:30",0.0,10.5,97.9,1009.7,274.0,0.7,1.7,319.5,0.00,10.2,8.3,"00:28:56",1
"23/01/14","00:40",0.0,10.3,98.0,1009.5,281.9,1.0,1.4,315.5,0.00,10.0,8.1,"00:37:12",1
"23/01/14","00:50",0.2,10.5,97.6,1009.5,239.6,0.6,1.1,199.1,0.00,10.2,8.0,"00:44:00",1
"23/01/14","01:00",0.2,10.2,98.0,1009.7,248.9,0.7,1.1,227.7,0.00,9.9,8.2,"00:54:48",1
"23/01/14","01:10",0.2,10.4,97.6,1009.7,280.1,0.8,1.1,290.5,0.00,10.1,8.3,"01:01:12",1
"23/01/14","01:20",0.0,10.3,98.1,1009.3,243.5,0.6,1.4,312.8,0.00,10.1,8.1,"01:10:08",1
"23/01/14","01:30",0.2,10.5,97.7,1009.3,229.1,0.5,0.8,244.2,0.00,10.2,8.1,"01:20:24",1
"23/01/14","01:40",0.0,10.3,98.1,1009.0,251.6,0.6,1.4,313.2,0.00,10.1,8.3,"01:35:28",1
"23/01/14","01:50",0.2,10.4,97.7,1008.8,239.5,0.6,0.9,243.1,0.00,10.1,8.3,"01:44:24",1
"23/01/14","02:00",0.2,10.2,98.2,1008.8,235.7,0.6,1.0,230.5,0.00,10.0,8.2,"01:53:36",1
"23/01/14","02:10",0.2,10.4,97.8,1008.8,271.7,0.7,1.1,252.8,0.00,10.1,8.2,"02:07:10",1
"23/01/14","02:20",0.2,10.3,98.3,1008.6,305.6,0.8,1.3,306.8,0.00,10.1,8.3,"02:15:20",1
"23/01/14","02:30",0.4,10.4,97.9,1008.8,283.6,0.7,1.1,306.5,0.00,10.1,8.4,"02:29:36",1
"23/01/14","02:40",0.0,10.3,98.4,1008.8,313.6,1.1,1.4,314.4,0.00,10.1,8.3,"02:37:02",1
"23/01/14","02:50",0.4,10.4,97.9,1008.8,302.8,1.1,1.1,295.3,0.00,10.1,8.2,"02:49:52",1
"23/01/14","03:00",0.4,10.2,98.4,1008.8,295.3,1.0,1.1,306.2,0.00,10.0,8.3,"02:56:32",1
"23/01/14","03:10",0.0,10.5,98.0,1008.6,272.1,1.0,1.3,257.1,0.00,10.2,8.5,"03:07:14",1
"23/01/14","03:20",0.2,10.6,97.9,1008.3,280.4,0.7,1.1,264.4,0.00,10.3,8.4,"03:10:28",1
"23/01/14","03:30",0.2,10.4,98.4,1008.3,278.3,0.8,1.3,315.6,0.00,10.2,8.4,"03:29:04",1
"23/01/14","03:40",0.0,10.5,98.0,1008.1,310.6,1.2,1.6,321.9,0.00,10.2,8.3,"03:37:10",1
"23/01/14","03:50",0.2,10.5,97.9,1008.1,263.3,1.1,1.6,305.4,0.00,10.2,8.4,"03:41:12",1
"23/01/14","04:00",0.6,10.3,98.6,1008.1,235.7,0.7,1.2,240.3,0.00,10.1,8.4,"03:50:08",1
"23/01/14","04:10",0.4,10.4,98.0,1007.6,239.4,1.1,1.7,248.9,0.00,10.1,8.4,"04:03:58",1
"23/01/14","04:20",0.4,10.4,98.1,1007.8,295.5,1.1,1.7,326.7,0.00,10.2,8.3,"04:17:10",1
"23/01/14","04:30",0.6,10.4,98.1,1007.6,323.0,1.6,1.9,330.9,0.00,10.2,8.5,"04:25:44",1
"23/01/14","04:40",0.2,10.4,98.1,1007.4,303.1,1.3,1.7,304.2,0.00,10.2,8.3,"04:37:00",1
"23/01/14","04:50",0.2,10.4,98.1,1007.1,274.8,1.1,1.3,310.6,0.00,10.2,8.5,"04:40:46",1
"23/01/14","05:00",0.2,10.4,98.2,1007.1,297.3,1.1,1.3,320.4,0.00,10.2,8.7,"04:58:54",1
"23/01/14","05:10",0.2,10.4,98.2,1007.1,320.9,1.1,1.8,324.1,0.00,10.2,8.4,"05:00:56",1
"23/01/14","05:20",0.2,10.4,98.2,1007.1,316.3,1.1,1.7,309.5,0.00,10.2,8.5,"05:15:48",1
"23/01/14","05:30",0.0,10.3,98.2,1006.9,294.5,1.0,1.6,330.9,0.00,10.1,8.4,"05:21:36",1
"23/01/14","05:40",0.2,10.3,98.2,1006.7,282.3,1.0,1.2,263.0,0.00,10.1,8.4,"05:31:20",1
"23/01/14","05:50",0.2,10.3,98.3,1006.9,291.4,0.7,1.4,308.5,0.00,10.1,8.6,"05:48:56",1
"23/01/14","06:00",0.4,10.4,98.3,1006.7,258.3,0.7,1.2,282.0,0.00,10.2,8.2,"05:50:32",1
"23/01/14","06:10",0.0,10.3,98.2,1006.7,261.3,0.6,1.1,259.2,0.00,10.1,8.5,"06:00:08",1
"23/01/14","06:20",0.0,10.4,98.3,1006.2,289.5,0.6,1.0,298.0,0.00,10.2,8.5,"06:12:40",1
"23/01/14","06:30",0.0,10.4,98.3,1006.7,256.7,0.5,1.2,261.0,0.00,10.2,8.2,"06:20:02",1
"23/01/14","06:40",0.0,10.4,98.3,1006.4,259.4,0.7,1.1,260.3,0.00,10.2,8.6,"06:30:08",1
"23/01/14","06:50",0.0,10.4,98.3,1006.0,239.7,0.3,0.5,265.0,0.00,10.2,8.6,"06:44:16",1
"23/01/14","07:00",0.0,10.5,98.3,1006.2,284.4,0.5,0.6,257.6,0.00,10.3,8.5,"06:51:04",1
"23/01/14","07:10",0.0,10.6,98.3,1006.2,268.8,0.5,1.0,291.7,0.00,10.4,8.5,"07:07:28",1
"23/01/14","07:20",0.2,10.5,98.3,1006.0,252.8,0.7,1.0,261.9,0.00,10.3,8.5,"07:10:08",1
"23/01/14","07:30",0.0,10.5,98.3,1006.2,266.5,0.8,1.0,285.1,0.00,10.3,8.3,"07:21:52",1
"23/01/14","07:40",0.2,10.5,98.3,1006.4,307.4,1.1,1.7,321.5,0.00,10.3,8.4,"07:34:40",1
"23/01/14","07:50",0.0,10.5,98.3,1006.0,277.7,0.8,1.6,316.3,0.00,10.3,8.4,"07:41:44",1
"23/01/14","08:00",0.0,10.5,98.4,1006.4,255.4,0.8,1.3,241.5,0.00,10.3,8.5,"07:58:40",1
"23/01/14","08:10",0.0,10.6,98.4,1006.2,287.4,0.7,1.1,304.4,0.00,10.4,8.5,"08:03:36",1
"23/01/14","08:20",0.0,10.7,98.4,1006.0,317.8,1.0,1.7,323.8,0.00,10.5,8.6,"08:12:48",1
"23/01/14","08:30",0.2,10.7,98.3,1006.2,278.4,0.7,1.0,309.8,0.00,10.5,8.6,"08:20:08",1
"23/01/14","08:40",0.2,10.7,98.4,1006.2,234.0,0.5,0.9,227.6,0.00,10.5,8.5,"08:33:04",1
"23/01/14","08:50",0.2,10.8,98.4,1006.2,291.4,0.3,1.1,319.6,0.00,10.6,8.5,"08:49:52",1
"23/01/14","09:00",0.4,10.9,98.4,1006.2,307.5,1.2,1.9,313.7,0.00,10.7,8.6,"08:59:04",1
"23/01/14","09:10",0.2,11.0,98.4,1006.0,301.6,1.0,1.6,314.7,0.00,10.8,8.5,"09:00:08",1
"23/01/14","09:20",0.2,11.1,98.4,1006.0,281.8,0.7,1.0,285.4,0.00,10.9,8.5,"09:11:36",1
"23/01/14","09:30",0.2,11.1,98.4,1006.2,293.2,1.0,1.7,316.5,0.00,10.9,8.7,"09:29:12",1
"23/01/14","09:40",0.0,11.2,98.4,1006.2,318.5,1.2,1.7,321.6,0.01,11.0,8.7,"09:30:40",1
"23/01/14","09:50",0.2,11.2,98.4,1005.7,299.7,1.0,1.3,315.0,0.00,11.0,8.7,"09:42:00",1
"23/01/14","10:00",0.2,11.3,98.4,1006.0,285.5,0.8,1.2,306.6,0.02,11.1,8.6,"09:59:36",1
"23/01/14","10:10",0.2,11.5,98.4,1006.0,303.5,0.8,1.2,316.5,0.05,11.3,8.7,"10:06:08",1
"23/01/14","10:20",0.2,11.8,98.4,1006.2,310.9,1.0,1.6,316.3,0.09,11.6,8.8,"10:13:36",1
"23/01/14","10:30",0.0,11.8,98.3,1006.0,281.6,0.7,1.0,260.9,0.09,11.6,8.8,"10:27:02",1
"23/01/14","10:40",0.2,11.9,98.3,1006.2,253.3,0.3,0.8,261.9,0.06,11.7,8.6,"10:30:32",1
"23/01/14","10:50",0.0,11.9,98.3,1005.5,277.8,0.2,0.8,292.1,0.03,11.7,8.9,"10:42:16",1
"23/01/14","11:00",0.0,11.9,98.3,1005.2,163.2,0.3,1.1,115.4,0.03,11.7,8.8,"10:57:20",1
"23/01/14","11:10",0.4,11.9,98.3,1005.0,233.5,0.6,0.9,237.6,0.03,11.7,8.8,"11:03:12",1
"23/01/14","11:20",0.0,11.9,98.3,1004.8,248.7,1.0,1.7,248.7,0.04,11.7,8.8,"11:12:40",1
"23/01/14","11:30",0.0,11.9,98.3,1004.3,264.2,1.1,1.4,250.6,0.04,11.7,8.8,"11:20:08",1
"23/01/14","11:40",0.0,12.0,98.4,1004.3,305.2,1.6,2.8,340.7,0.05,11.8,8.9,"11:35:24",1
"23/01/14","11:50",0.0,12.0,98.4,1003.8,277.9,1.2,1.8,264.0,0.07,11.8,8.7,"11:45:38",1
"23/01/14","12:00",0.0,12.3,98.4,1004.5,300.4,1.7,2.4,322.3,0.12,12.1,8.8,"11:54:08",1
"23/01/14","12:10",0.0,12.5,98.4,1004.5,291.7,1.8,2.9,327.1,0.08,12.3,9.0,"12:01:46",1
"23/01/14","12:20",0.0,12.5,98.3,1004.1,253.5,1.5,2.6,233.6,0.06,12.3,9.2,"12:16:24",1
"23/01/14","12:30",0.0,12.8,98.3,1004.1,313.3,0.6,1.6,335.1,0.09,12.6,8.8,"12:29:44",1
"23/01/14","12:40",0.0,12.8,98.3,1003.6,356.9,1.0,2.1,321.3,0.06,12.6,8.9,"12:32:32",1
"23/01/14","12:50",0.0,12.9,98.3,1003.8,184.0,0.5,1.3,133.7,0.09,12.7,9.0,"12:47:28",1
"23/01/14","13:00",0.0,13.0,98.1,1003.6,205.1,0.6,1.6,210.9,0.11,12.7,9.2,"12:56:32",1
"23/01/14","13:10",0.0,12.9,98.3,1003.4,196.0,0.5,1.3,210.3,0.10,12.7,9.0,"13:00:32",1
"23/01/14","13:20",0.0,13.0,98.2,1003.6,265.0,0.3,1.1,214.6,0.10,12.8,9.1,"13:16:56",1
"23/01/14","13:30",0.0,13.0,98.3,1002.9,110.0,0.2,0.6,98.7,0.12,12.8,9.2,"13:20:56",1
"23/01/14","13:40",0.0,13.3,98.3,1003.1,293.7,0.8,1.9,314.4,0.16,13.1,9.2,"13:33:44",1
"23/01/14","13:50",0.0,13.5,98.2,1002.6,272.7,0.6,1.4,319.6,0.14,13.3,9.3,"13:49:12",1
"23/01/14","14:00",0.0,13.7,98.0,1002.9,266.9,0.7,1.7,310.3,0.25,13.4,9.4,"13:50:08",1
"23/01/14","14:10",0.0,14.0,98.1,1002.9,222.3,0.6,1.6,165.7,0.27,13.7,9.1,"14:06:32",1
"23/01/14","14:20",0.0,14.1,97.6,1002.9,260.7,0.6,1.2,130.0,0.25,13.8,9.3,"14:12:40",1
"23/01/14","14:30",0.0,14.1,98.3,1002.9,245.1,0.8,1.3,245.2,0.14,13.9,9.3,"14:26:24",1
"23/01/14","14:40",0.0,14.0,97.7,1002.6,241.1,0.8,1.8,252.6,0.08,13.7,9.5,"14:30:24",1
"23/01/14","14:50",0.0,14.0,98.1,1002.9,263.9,0.7,1.1,246.1,0.08,13.7,9.5,"14:40:48",1
"23/01/14","15:00",0.0,14.1,97.6,1002.9,252.6,0.5,0.9,269.4,0.06,13.8,9.7,"14:51:20",1
"23/01/14","15:10",0.0,14.2,98.3,1002.9,269.4,0.8,1.4,263.4,0.11,14.0,9.5,"15:07:06",1
"23/01/14","15:20",0.0,14.3,97.8,1002.9,264.2,0.8,1.7,248.6,0.11,14.0,9.7,"15:11:36",1
"23/01/14","15:30",0.0,14.2,98.0,1003.1,280.0,0.5,0.8,313.6,0.05,13.9,9.5,"15:20:08",1
"23/01/14","15:40",0.0,14.5,97.8,1003.4,284.1,1.0,1.2,267.5,0.05,14.2,9.6,"15:36:50",1
"23/01/14","15:50",0.0,14.4,98.2,1003.1,283.2,0.6,1.1,331.2,0.05,14.2,9.5,"15:42:08",1
"23/01/14","16:00",0.0,14.2,97.8,1002.9,174.1,0.5,1.0,104.1,0.04,13.9,9.8,"15:56:24",1
"23/01/14","16:10",0.0,14.0,97.8,1003.4,226.2,0.7,1.3,159.6,0.01,13.7,9.9,"16:00:24",1
"23/01/14","16:20",0.0,13.8,98.0,1003.1,241.5,0.8,1.3,209.4,0.00,13.5,9.9,"16:12:08",1
"23/01/14","16:30",0.0,14.1,97.6,1003.1,273.3,1.0,1.4,248.7,0.00,13.8,9.9,"16:20:24",1
"23/01/14","16:40",0.0,13.9,98.0,1003.4,290.6,1.0,1.4,317.1,0.00,13.6,9.9,"16:31:52",1
"23/01/14","16:50",0.0,13.9,97.6,1003.4,260.7,1.1,1.7,263.3,0.00,13.6,10.0,"16:44:32",1
"23/01/14","17:00",0.0,13.8,98.1,1003.4,269.4,0.8,1.3,265.8,0.00,13.5,9.8,"16:56:56",1
"23/01/14","17:10",0.0,13.8,97.5,1003.8,254.3,0.6,1.4,250.0,0.00,13.5,9.9,"17:00:56",1
"23/01/14","17:20",0.0,13.6,98.1,1003.8,261.6,0.3,0.6,245.2,0.00,13.3,9.9,"17:14:16",1
"23/01/14","17:30",0.0,13.8,97.7,1003.8,313.9,1.1,1.9,320.0,0.00,13.5,9.9,"17:28:56",1
"23/01/14","17:40",0.0,13.5,98.1,1003.4,302.8,1.3,1.8,316.6,0.00,13.2,10.0,"17:30:32",1
"23/01/14","17:50",0.0,13.5,97.7,1003.4,316.0,1.3,1.9,320.8,0.00,13.2,9.8,"17:43:12",1
"23/01/14","18:00",0.0,13.2,98.2,1003.4,284.7,1.0,1.3,264.6,0.00,13.0,9.9,"17:55:04",1
"23/01/14","18:10",0.0,13.2,97.8,1003.8,296.1,1.2,2.4,340.8,0.00,12.9,10.1,"18:09:08",1
"23/01/14","18:20",0.0,13.1,98.3,1003.8,328.0,0.8,1.9,328.1,0.00,12.9,10.0,"18:12:26",1
"23/01/14","18:30",0.0,13.2,97.9,1004.1,273.9,1.2,2.2,250.7,0.00,12.9,10.0,"18:28:40",1
"23/01/14","18:40",0.0,13.1,98.3,1003.8,286.1,1.1,1.6,262.4,0.00,12.9,9.9,"18:32:24",1
"23/01/14","18:50",0.0,13.1,97.9,1003.6,291.9,1.6,2.2,315.7,0.00,12.8,9.9,"18:43:16",1
"23/01/14","19:00",0.0,13.0,98.3,1004.1,288.8,1.3,1.8,317.4,0.00,12.8,9.9,"18:55:12",1
"23/01/14","19:10",0.0,12.8,97.9,1004.3,309.1,2.0,3.1,324.5,0.00,12.5,9.8,"19:09:30",1
"23/01/14","19:20",0.0,13.0,98.2,1004.1,298.9,2.5,4.7,316.9,0.00,12.8,10.0,"19:12:54",1
"23/01/14","19:30",0.0,13.1,97.3,1004.1,305.0,2.3,4.2,314.9,0.00,12.7,10.0,"19:27:14",1
"23/01/14","19:40",0.0,13.1,97.5,1004.3,296.8,2.1,3.3,346.1,0.00,12.8,10.0,"19:31:06",1
"23/01/14","19:50",0.0,13.2,97.4,1004.1,278.6,1.8,2.5,265.5,0.00,12.8,10.0,"19:47:22",1
"23/01/14","20:00",0.0,13.2,97.2,1004.1,308.2,2.0,2.9,307.7,0.00,12.8,9.9,"19:55:44",1
"23/01/14","20:10",0.0,13.0,97.1,1004.1,309.8,1.8,3.5,335.6,0.00,12.6,9.9,"20:08:34",1
"23/01/14","20:20",0.0,13.1,96.9,1004.5,304.6,2.2,4.2,314.4,0.00,12.7,9.9,"20:14:56",1
"23/01/14","20:30",0.0,13.1,96.6,1004.5,312.2,2.3,3.6,329.0,0.00,12.6,10.0,"20:22:10",1
"23/01/14","20:40",0.0,13.0,96.4,1004.3,326.8,2.5,4.0,316.6,0.00,12.5,9.9,"20:39:30",1
"23/01/14","20:50",0.0,13.1,95.7,1004.3,319.2,3.0,4.3,308.9,0.00,12.5,10.0,"20:40:40",1
"23/01/14","21:00",0.0,13.3,94.9,1004.1,308.9,3.4,5.9,303.8,0.00,12.5,9.9,"20:52:48",1
"23/01/14","21:10",0.0,13.4,94.0,1004.5,309.6,2.7,3.9,340.0,0.00,12.5,9.8,"21:01:44",1
"23/01/14","21:20",0.0,13.4,92.8,1004.3,322.0,2.7,4.5,325.8,0.00,12.3,9.9,"21:11:02",1
"23/01/14","21:30",0.0,13.2,92.0,1004.5,319.6,2.1,3.4,327.1,0.00,12.0,9.8,"21:20:24",1
"23/01/14","21:40",0.0,13.0,91.4,1004.3,321.8,1.8,3.1,316.6,0.00,11.7,9.9,"21:36:10",1
"23/01/14","21:50",0.0,13.0,91.0,1004.3,311.3,2.0,4.0,323.7,0.00,11.6,10.0,"21:46:10",1
"23/01/14","22:00",0.0,12.9,90.5,1004.1,319.6,2.1,3.6,320.6,0.00,11.4,9.8,"21:55:24",1
"23/01/14","22:10",0.0,12.8,90.2,1004.3,308.5,1.7,2.2,311.4,0.00,11.3,9.8,"22:00:02",1
"23/01/14","22:20",0.0,12.7,90.1,1004.8,310.6,2.3,4.1,339.2,0.00,11.2,9.9,"22:12:08",1
"23/01/14","22:30",0.0,12.8,89.7,1004.8,316.7,2.8,4.2,326.5,0.00,11.2,9.9,"22:26:32",1
"23/01/14","22:40",0.0,13.1,88.9,1005.2,314.7,3.6,6.0,312.4,0.00,11.4,9.8,"22:35:10",1
"23/01/14","22:50",0.0,13.1,88.0,1004.8,325.9,3.1,5.1,327.7,0.00,11.2,9.8,"22:44:12",1
"23/01/14","23:00",0.0,13.0,87.5,1004.8,315.8,2.8,4.0,304.1,0.00,11.0,10.0,"22:50:50",1
"23/01/14","23:10",0.0,12.9,87.5,1005.0,322.0,2.5,4.4,318.5,0.00,10.9,9.8,"23:00:08",1
"23/01/14","23:20",0.0,12.8,87.1,1005.0,317.6,3.4,5.9,304.1,0.00,10.7,10.0,"23:17:54",1
"23/01/14","23:30",0.0,13.0,86.1,1005.0,319.6,3.5,8.5,337.8,0.00,10.8,9.8,"23:26:00",1
"23/01/14","23:40",0.0,12.8,85.5,1005.2,325.4,2.3,3.6,331.6,0.00,10.5,10.0,"23:32:34",1
"23/01/14","23:50",0.0,12.6,85.6,1005.5,319.6,2.0,3.6,326.2,0.00,10.3,9.9,"23:49:54",1
"23/01/14","24:00",0.0,12.5,85.9,1005.2,309.4,2.2,3.2,309.2,0.00,10.2,9.8,"23:50:26",1
